Flag for New Zealand Weather past 2 weeks in Christchurch, New Zealand

Now
45 °F

Low clouds.


Feels Like: 41 °F
Forecast: 41 / 49 °F
Wind: 7 mph from Northeast

Location: Christchurch Airport

Current Time: Aug 31, 2015 at 2:41:45 PM

Latest Report: Aug 31, 2015 at 2:00 PM


Visibility: N/A

Pressure: 30.18 "Hg

Humidity: 87%

Dew point: 41 °F

Location of ChristchurchLocation

Historic Weather in Christchurch — Graph

°F

Christchurch temperature yesterday

Maximum temperature yesterday: 50 °F (at 2:30 PM)
Minimum temperature yesterday: 36 °F (at 2:30 AM)
Average temperature yesterday: 43 °F

Past Weeks' High & Low Weather Summary

 TemperatureHumidityPressure
High64 °F (Aug 18, 3:30 PM)100% (Aug 17, 2:00 AM)30.54 "Hg (Aug 17, 2:00 AM)
Low27 °F (Aug 26, 5:30 AM)37% (Aug 18, 3:30 PM)29.65 "Hg (Aug 19, 1:30 PM)
Average43 °F83%30.09 "Hg
* Reported Aug 16 1:00 PM — Aug 31 1:30 PM, Christchurch, Weather by CustomWeather, © 2015

Note: Actual official high and low records may vary slightly from our data, if they occured in-between our weather recording intervals... More about our weather records

Advertising

Christchurch weather history for previous 24 hours

 ConditionsComfort  
Time TempWeatherWind HumidityBarometerVisibility
1:30 PM
Mon, Aug 31
45 °FMore clouds than sun.5 mph87%30.18 "HgN/A
1:00 PM46 °FOvercast.8 mph76%30.18 "HgN/A
12:30 PM46 °FOvercast.6 mph82%30.18 "HgN/A
12:00 PM46 °FOvercast.6 mph82%30.18 "HgN/A
11:30 AM46 °FOvercast.5 mph82%30.18 "HgN/A
11:00 AM45 °FOvercast.6 mph87%30.18 "HgN/A
10:30 AM45 °FOvercast.5 mph87%30.18 "HgN/A
10:00 AM45 °FOvercast.6 mph87%30.18 "HgN/A
9:30 AM45 °FOvercast.6 mph87%30.18 "HgN/A
9:00 AM45 °FOvercast.6 mph87%30.18 "HgN/A
8:30 AM45 °FOvercast.5 mph87%30.18 "HgN/A
8:00 AM43 °FOvercast.6 mph93%30.15 "HgN/A
7:30 AM43 °FOvercast.6 mph93%30.15 "HgN/A
7:00 AM43 °FOvercast.6 mph93%30.15 "HgN/A
6:30 AM43 °FMostly cloudy.7 mph93%30.15 "HgN/A
6:00 AM43 °FOvercast.6 mph93%30.15 "HgN/A
5:30 AM43 °FOvercast.6 mph93%30.15 "HgN/A
5:00 AM43 °FOvercast.5 mph100%30.15 "HgN/A
4:30 AM43 °FOvercast.2 mph100%30.15 "HgN/A
4:00 AM43 °FMostly cloudy.3 mph100%30.15 "HgN/A
3:30 AM41 °FPassing clouds.2 mph100%30.15 "HgN/A
3:00 AM43 °FPartly cloudy.5 mph93%30.15 "HgN/A
2:30 AM45 °FLow clouds.5 mph93%30.15 "HgN/A
2:00 AM45 °FMostly cloudy.2 mph93%30.15 "HgN/A
1:30 AM45 °FLow clouds.2 mph93%30.15 "HgN/A
1:00 AM45 °FLow clouds.2 mph93%30.15 "HgN/A
12:30 AM45 °FMostly cloudy.No wind93%30.15 "HgN/A
12:00 AM43 °FMostly cloudy.5 mph100%30.15 "HgN/A
11:30 PM
Sun, Aug 30
43 °FPassing clouds.6 mph100%30.15 "HgN/A
11:00 PM45 °FPartly cloudy.6 mph100%30.15 "HgN/A
10:30 PM45 °FMostly cloudy.8 mph100%30.15 "HgN/A
10:00 PM45 °FPassing clouds.7 mph100%30.15 "HgN/A
9:30 PM46 °FPartly cloudy.6 mph93%30.15 "HgN/A
9:00 PM46 °FPassing clouds.6 mph93%30.12 "HgN/A
8:30 PM46 °FSprinkles. Fog.6 mph100%30.12 "Hg2 mi
8:00 PM46 °FPassing clouds.5 mph93%30.12 "HgN/A
7:30 PM46 °FSprinkles. Passing clouds.5 mph100%30.12 "Hg3 mi
7:00 PM46 °FFog.7 mph100%30.12 "Hg3 mi
6:30 PM46 °FPassing clouds.6 mph100%30.09 "HgN/A
6:00 PM46 °FLow clouds.8 mph100%30.09 "HgN/A
5:30 PM48 °FMostly cloudy.8 mph94%30.09 "HgN/A
5:00 PM48 °FSprinkles. Passing clouds.12 mph94%30.07 "Hg3 mi
4:30 PM48 °FCloudy.10 mph94%30.07 "HgN/A
3:30 PM48 °FMostly cloudy.12 mph94%30.07 "Hg4 mi
3:00 PM48 °FLow clouds.13 mph100%30.07 "Hg4 mi
2:30 PM50 °FLow clouds.13 mph94%30.07 "HgN/A
2:00 PM48 °FMostly cloudy.15 mph94%30.04 "HgN/A
Weather by CustomWeather, © 2015

See weather overviewHow to use our weather pages